Starlink 31419

operational
NORAD ID: 59368 Int'l Des: 2024-060 Owner: SPXS Country: US Constellation: starlink
LEOCIRCULAR

About Starlink 31419

Description loading...

Live Position

Loading 3D Globe...

Upcoming Passes

Altitude History

Altitude vs Time

uPlot chart will show altitude changes over time

Two-Line Element Set

1 59368U 24060W 25305.20312058 -.00002666 00000-0 -87429-4 0 9995
2 59368 43.0008 265.3774 0000280 178.1444 181.9408 15.27569138 90413
Epoch: Nov 1, 2025 • Age: 16 hours

Current Status

Altitude 483.0 km
Velocity 7.63 km/s
Sub-Earth Point 0.31°N, 87.91°W
Launch Date Mar 31, 2024
Age 1.5 years
Type internet

Technical Details

Classification Payload
Mass 730.00 kg
Dry Mass 700.00 kg
Total Mass 730.00 kg
Length 0.30 m
Diameter 4.10 m
Span 29.00 m
Shape Box + pan
Manufacturer SPXS
Bus Type Starlink V2M
Phase Status In Orbit
Owner/State SPXS/US

Large Constellations

Loading constellations...